Temperature
6 7 6 7 7 6 6 7 8 9 9 10 10 9 8 7 6 5 5 5 5 5 5 5 5 5 5 5 4 4 4 4 3 3 3 3 3 3 3 3 3 3 2 2
6 6 6 6 6 6 6 7 7 8 8 9 9 7 7 6 5 5 5 5 5 5 5 5 5 5 5 4 4 4 4 3 3 3 3 3 2 2 2 2 2 2 2 2
7 6 6 7 8 7 6 7 7 7 8 9 8 7 7 6 5 5 5 5 5 5 5 5 5 5 5 4 4 4 3 3 3 3 2 2 2 2 2 2 2 2 2 1
6 6 6 10 7 7 7 7 7 7 8 8 7 6 5 5 5 5 5 5 5 5 5 5 5 4 4 4 4 3 3 3 3 2 2 2 2 2 2 1 1 1 1 1
5 6 8 9 7 6 6 7 8 7 7 7 5 5 6 6 6 5 5 5 5 5 5 5 4 4 4 4 3 3 3 3 2 2 2 2 2 1 1 1 1 1 1 0
5 5 7 10 7 5 7 8 8 7 7 6 5 7 8 6 6 5 5 5 5 5 4 4 4 4 4 3 3 3 3 2 2 2 2 2 1 1 1 1 0 0 0 0
4 5 7 8 6 5 8 9 7 6 6 5 6 7 6 5 5 5 5 5 5 4 4 4 4 4 4 3 3 3 2 2 2 2 1 1 1 1 0 0 0 -0 -0 -0
4 5 7 7 5 7 9 7 6 6 6 5 5 5 5 5 5 5 5 5 4 4 4 4 4 4 3 3 3 2 2 2 2 1 1 1 1 0 0 -0 -0 -0 -1 -1
6 7 7 5 6 7 6 6 6 5 5 5 4 4 4 4 4 4 4 4 4 4 4 4 3 3 3 3 3 2 2 2 1 1 1 0 0 -0 -0 -1 -1 -1 -1 -1
4 6 6 5 5 6 6 5 5 5 5 4 4 4 4 4 4 4 4 4 4 3 3 3 3 3 3 2 2 2 2 1 1 1 1 0 -0 -0 -1 -1 -1 -1 -2 -2
4 6 6 6 6 6 6 6 5 5 4 4 4 4 3 3 3 3 3 3 3 3 3 3 3 3 2 2 2 2 1 1 1 0 0 0 -0 -1 -1 -1 -2 -2 -2 -2
6 7 7 7 6 6 5 5 5 4 4 4 3 3 3 3 3 3 3 3 3 3 3 3 2 2 2 2 1 1 1 1 0 0 -0 -0 -1 -1 -1 -1 -1 -2 -2 -3
6 6 5 5 5 5 5 4 4 4 4 3 3 3 3 3 3 3 2 2 2 2 2 2 2 2 2 1 1 1 0 0 -0 -0 -1 -1 -1 -1 -1 -1 -2 -2 -2 -2
4 4 4 4 4 4 4 4 4 3 3 3 3 3 3 2 2 2 2 2 2 2 2 2 2 2 1 1 1 0 0 -0 -1 -1 -1 -1 -2 -2 -2 -2 -2 -2 -2 -3
3 3 3 3 3 3 3 3 3 3 3 3 3 2 2 2 2 2 2 2 2 2 2 2 2 2 1 1 0 0 -0 -0 -1 -1 -1 -2 -2 -2 -3 -3 -3 -3 -3 -3
3 3 3 3 3 3 3 2 2 2 2 2 2 2 2 2 2 2 2 2 2 2 2 2 1 1 1 0 0 -0 -0 -1 -1 -1 -2 -2 -2 -3 -3 -3 -3 -4 -4 -4
1 2 2 2 2 2 2 2 2 2 2 2 2 2 2 2 2 2 2 1 1 1 1 1 1 1 0 0 -0 -0 -1 -1 -1 -2 -2 -2 -3 -3 -3 -3 -4 -4 -4 -4
2 2 2 2 2 2 2 2 2 2 2 2 2 2 2 2 2 2 1 1 1 1 1 1 1 0 0 -0 -0 -1 -1 -1 -2 -2 -2 -3 -3 -3 -4 -4 -4 -4 -4 -4
2 2 2 2 2 2 2 2 2 2 2 2 2 2 2 2 2 1 1 1 1 1 1 1 0 0 -0 -0 -1 -1 -1 -2 -2 -2 -3 -3 -4 -4 -4 -4 -4 -4 -4 -4
2 2 2 2 2 2 2 2 2 2 2 1 1 1 1 1 1 1 1 1 1 1 0 0 -0 -0 -0 -1 -1 -2 -2 -2 -3 -3 -3 -4 -4 -4 -4 -4 -4 -4 -5 -5
2 2 2 2 2 2 1 1 1 1 1 1 1 1 1 1 1 1 1 1 1 0 0 -0 -0 -1 -1 -1 -2 -2 -2 -3 -3 -3 -4 -4 -4 -4 -4 -5 -5 -5 -5 -5
1 1 2 1 1 1 1 1 1 1 1 1 1 1 1 1 1 0 0 0 0 -0 -0 -1 -1 -1 -1 -2 -2 -2 -3 -3 -3 -4 -4 -4 -4 -4 -5 -5 -5 -5 -5 -5
1 1 1 1 1 1 1 1 1 1 1 1 1 0 0 0 0 0 0 0 -0 -0 -1 -1 -1 -1 -2 -2 -2 -3 -3 -3 -4 -4 -4 -4 -5 -5 -5 -5 -5 -5 -6 -6
1 1 1 1 1 1 1 1 1 1 0 0 0 0 -0 -0 -0 -0 -0 -1 -1 -1 -1 -1 -1 -2 -2 -2 -2 -3 -3 -3 -4 -4 -4 -5 -5 -5 -5 -5 -6 -6 -6 -6
1 1 1 1 1 1 1 1 0 0 0 0 -0 -0 -0 -1 -1 -1 -1 -1 -1 -1 -1 -2 -2 -2 -2 -3 -3 -3 -3 -4 -4 -4 -5 -5 -5 -5 -6 -6 -6 -6 -6 -6
0 0 0 0 0 0 0 0 -0 -0 -0 -0 -0 -1 -1 -1 -1 -1 -1 -1 -2 -2 -2 -2 -2 -2 -3 -3 -3 -3 -4 -4 -4 -5 -5 -5 -5 -6 -6 -6 -6 -6 -6 -7
0 0 0 0 0 0 -0 -0 -0 -1 -1 -1 -1 -1 -1 -1 -1 -1 -2 -2 -2 -2 -2 -3 -3 -3 -3 -3 -3 -4 -4 -4 -4 -5 -5 -5 -6 -6 -6 -6 -6 -7 -7 -7
Wind_Speed
9 10 9 11 12 12 14 14 11 11 13 15 12 12 11 9 8 7 7 7 7 6 6 6 5 5 5 5 4 4 4 4 4 4 4 4 5 5 5 5 5 5 5 5
7 6 8 13 16 16 16 16 18 18 18 14 12 9 8 8 7 7 7 7 7 7 6 6 6 5 5 5 5 4 5 5 4 4 4 4 4 5 5 5 5 5 5 5
5 5 8 10 11 13 10 11 11 14 12 9 8 8 9 8 8 8 8 7 7 7 7 6 6 6 6 5 4 4 5 4 4 4 4 4 4 4 4 5 5 5 5 5
5 6 7 2 1 6 9 11 13 13 12 10 9 9 10 8 8 8 8 7 7 6 6 6 6 5 5 5 5 5 5 5 5 4 4 4 4 4 5 4 4 4 5 5
3 5 9 7 3 4 6 8 10 13 12 10 7 7 7 5 5 7 7 7 6 6 6 5 5 5 5 5 5 5 6 6 5 5 5 4 5 5 4 4 4 5 5 5
4 5 6 2 2 2 2 5 3 6 8 6 4 6 5 2 4 6 6 6 5 5 5 5 5 5 6 6 6 6 6 6 5 5 5 5 5 5 4 4 5 5 5 5
8 8 9 4 3 4 4 3 1 4 6 5 6 8 7 6 6 7 7 6 5 5 5 5 4 5 6 6 7 7 6 5 5 5 5 5 5 5 4 4 5 5 6 5
7 7 8 4 6 6 5 4 4 6 6 7 9 9 9 8 8 7 7 6 6 5 5 4 4 5 6 7 7 5 5 5 5 5 5 4 5 5 4 4 5 5 5 6
9 9 5 5 8 7 5 7 7 8 9 9 9 10 10 9 9 8 8 7 6 6 5 5 5 6 7 7 5 5 5 5 5 5 5 5 5 5 4 4 4 5 5 5
9 14 14 14 14 13 12 11 11 10 10 9 10 11 11 10 9 8 8 7 6 6 6 6 5 6 7 6 4 5 5 5 5 5 5 4 4 4 4 4 4 5 5 6
13 15 14 13 12 12 11 10 10 10 10 10 10 11 11 10 9 8 7 6 6 6 7 7 6 6 6 5 5 6 6 5 5 5 5 5 5 5 6 6 6 6 6 6
13 13 11 12 9 9 10 11 10 10 10 10 10 10 10 9 9 8 8 7 6 7 7 7 6 6 6 5 6 6 6 5 5 4 4 4 4 5 7 8 9 10 9 9
17 14 14 15 14 13 12 11 10 10 10 10 9 9 9 9 8 8 8 8 8 8 7 7 7 7 6 5 6 7 7 6 5 5 5 5 4 5 5 6 8 10 10 10
15 13 15 14 14 12 10 10 9 9 9 9 8 8 8 8 8 8 8 8 8 7 7 7 7 7 6 5 6 7 7 7 6 5 5 5 5 5 5 6 6 6 7 9
14 13 14 13 12 11 9 8 8 9 8 8 7 7 7 8 8 9 8 7 6 7 7 7 7 7 5 5 6 7 6 5 5 5 5 5 5 5 6 6 6 6 6 6
10 10 11 12 12 11 10 9 9 10 9 8 8 8 8 8 8 8 7 6 6 7 7 7 8 7 5 5 6 6 6 7 6 5 5 5 5 6 6 6 6 6 6 6
10 10 9 10 10 11 10 10 9 9 9 9 8 8 7 7 7 7 7 6 7 7 7 7 7 6 5 6 6 5 5 5 7 6 6 6 6 6 6 6 6 7 7 7
12 12 11 10 10 10 10 9 9 8 8 8 7 7 7 7 7 7 6 5 5 6 7 7 7 5 5 6 5 5 5 5 5 6 6 6 6 6 6 7 7 8 7 7
8 9 10 10 10 9 9 9 8 8 7 6 6 7 7 7 7 7 5 5 6 7 6 5 6 6 6 6 5 5 5 5 5 6 6 7 7 6 6 7 7 7 6 6
6 6 7 7 7 7 7 7 7 7 6 5 6 7 7 7 6 6 5 6 6 6 5 4 4 5 5 5 6 4 5 6 6 5 5 5 6 6 6 6 7 7 6 6
6 6 6 6 6 6 6 6 6 6 6 5 6 7 7 7 6 5 5 6 6 5 5 6 5 4 4 4 6 4 5 5 5 5 5 6 6 6 6 6 6 6 6 6
6 6 6 6 6 6 6 5 5 6 6 6 6 6 6 6 6 6 6 6 6 5 4 4 4 5 5 5 4 5 5 5 5 5 5 6 6 6 6 6 6 6 6 6
7 6 6 6 6 6 6 5 5 6 6 7 7 7 7 6 5 5 6 5 4 6 5 5 5 6 7 5 5 5 5 6 6 6 6 6 6 6 6 6 6 6 6 6
7 7 7 6 5 6 7 7 6 5 6 7 7 7 6 5 5 5 6 6 6 7 5 6 7 8 7 5 5 5 5 5 6 6 6 5 5 5 5 5 5 5 6 6
8 7 7 7 7 7 7 6 6 6 6 6 6 6 6 5 6 5 5 5 6 6 5 6 7 7 6 5 5 5 5 5 5 5 5 5 5 5 5 5 5 5 5 5
9 8 8 8 8 7 6 6 6 6 5 6 6 5 5 5 5 5 5 5 6 6 5 4 4 5 5 5 5 6 5 5 6 5 5 5 6 5 5 5 6 5 5 5
8 8 7 8 8 7 6 6 7 7 6 6 6 6 5 5 5 5 5 5 5 5 4 4 4 4 4 5 5 5 5 4 4 5 5 5 5 5 5 5 5 4 4 4
Wind_Direction
269 271 262 257 249 228 225 234 247 260 265 276 282 287 290 288 284 276 272 269 264 263 261 253 249 245 242 239 238 241 247 258 271 283 292 298 303 308 312 315 317 317 317 318
280 266 262 264 254 240 238 242 249 263 274 279 289 288 284 283 275 268 272 272 268 264 260 257 250 245 239 235 233 234 243 255 269 280 287 293 300 304 309 314 317 318 321 323
279 303 295 267 243 221 223 227 233 246 256 276 287 288 289 288 276 269 272 272 266 261 257 254 249 242 237 232 227 230 242 254 263 271 278 286 295 298 302 308 312 313 317 318
288 303 259 259 125 211 227 246 233 245 260 271 281 294 289 278 269 272 275 274 269 265 261 256 249 240 234 227 222 228 239 248 255 263 272 281 286 289 294 299 303 306 309 309
261 278 280 280 234 199 222 268 238 239 256 274 294 295 276 260 259 267 274 274 269 265 264 256 246 234 224 223 225 231 240 247 250 255 263 270 275 281 287 290 295 300 300 303
238 258 262 276 145 168 215 271 232 231 260 277 282 285 297 310 287 280 278 276 272 267 259 251 243 225 220 226 228 235 241 246 249 248 252 259 266 275 280 282 287 294 295 296
233 247 267 272 154 162 229 305 323 253 263 258 254 275 303 306 293 286 283 281 274 264 256 253 242 220 225 231 236 241 241 244 246 245 247 253 263 269 274 279 284 289 293 294
208 225 254 175 162 211 270 315 291 281 273 266 272 284 287 287 285 284 283 278 270 262 261 255 234 220 230 240 244 240 235 239 243 244 245 247 253 262 268 273 278 287 291 294
215 233 277 203 232 266 288 283 285 283 282 277 280 283 283 283 284 280 276 272 264 256 258 255 234 222 235 246 241 229 230 238 243 244 244 247 250 257 263 265 271 281 285 290
254 260 266 265 264 267 267 270 277 280 280 276 277 282 283 281 280 278 273 268 261 255 255 255 244 232 240 245 229 224 233 240 242 242 245 246 248 249 254 256 261 270 278 284
257 269 279 271 260 264 271 273 276 279 277 273 276 279 279 278 277 275 271 265 255 250 254 257 254 245 242 237 222 227 236 239 239 239 243 245 247 250 253 254 258 266 270 276
256 262 266 280 284 279 276 276 275 279 279 278 273 275 276 274 274 272 268 261 253 250 252 255 254 250 243 227 219 225 234 238 237 239 241 246 255 264 251 256 265 265 269 275
260 274 276 283 286 281 277 278 278 276 275 277 276 273 273 273 274 272 266 259 252 251 252 253 251 249 242 224 218 223 232 236 236 236 239 243 249 260 274 269 260 263 266 271
261 269 274 274 278 281 280 279 282 281 277 272 273 274 272 271 270 268 265 260 256 254 253 251 251 251 243 222 220 228 235 236 235 237 237 240 245 251 259 269 279 280 272 271
260 255 262 275 279 280 280 281 281 282 282 280 274 269 266 265 267 270 270 265 258 254 252 248 248 251 240 222 222 230 233 235 235 239 240 242 245 249 255 261 268 277 284 281
270 268 265 265 268 274 277 275 273 275 278 279 277 273 269 265 267 271 270 260 252 253 252 247 248 250 233 221 225 231 235 234 235 240 242 244 245 247 253 259 264 269 274 280
266 268 265 266 266 269 268 267 266 268 272 271 272 275 273 270 269 269 269 263 255 258 257 251 252 249 232 224 225 232 236 234 230 240 242 243 245 248 252 255 259 265 269 272
251 258 261 264 265 268 270 268 265 263 263 266 271 270 264 261 265 271 275 271 266 265 258 251 249 244 235 229 228 232 233 237 235 238 243 243 248 251 253 256 259 265 273 274
259 260 265 264 262 261 261 262 262 263 265 264 263 263 263 262 263 269 269 259 258 266 268 254 241 235 235 230 225 231 233 237 239 240 243 247 250 251 253 256 261 265 269 272
271 268 267 269 267 258 258 261 262 264 264 259 259 263 265 265 264 262 256 255 254 258 266 262 249 241 238 231 223 232 233 236 238 240 241 244 248 253 255 259 262 265 265 266
280 279 277 278 279 272 264 261 260 265 269 261 254 257 262 267 261 252 252 265 267 255 256 251 246 243 237 234 221 229 231 234 237 238 240 244 248 252 256 259 262 262 263 264
283 281 282 283 283 286 284 273 262 264 269 265 260 259 261 265 264 256 248 253 271 264 258 251 244 240 238 231 226 228 231 234 238 240 241 244 247 251 256 259 261 262 262 263
278 275 275 276 276 282 286 277 264 261 262 261 259 256 255 258 257 256 268 262 263 260 258 252 247 243 239 232 232 230 231 235 239 242 245 246 248 251 255 257 259 261 263 264
272 271 271 274 275 274 276 275 267 263 262 263 259 254 253 259 260 248 255 265 259 257 257 255 250 247 239 235 235 235 235 237 241 245 247 248 248 250 252 255 259 262 263 265
265 266 266 265 266 268 268 270 273 271 271 270 267 260 250 244 247 259 261 259 255 254 258 255 250 247 241 239 235 235 236 238 242 244 244 246 247 249 251 253 256 260 262 261
261 263 263 258 260 265 265 263 266 269 270 273 273 266 258 252 249 253 256 256 254 253 255 254 248 243 242 242 240 239 240 242 243 241 242 244 247 248 250 253 258 258 258 256
262 263 263 265 263 254 250 251 255 259 257 257 266 266 260 257 254 252 251 254 254 253 253 251 245 240 241 242 242 241 238 237 237 238 240 241 242 243 247 249 252 253 252 251
Height
1512 1511 1511 1507 1506 1507 1507 1500 1497 1485 1484 1478 1479 1480 1480 1479 1479 1478 1477 1476 1475 1474 1474 1473 1473 1472 1472 1471 1470 1469 1468 1466 1464 1462 1461 1459 1457 1455 1453 1450 1448 1446 1444 1442
1510 1508 1508 1505 1500 1499 1499 1497 1493 1488 1483 1477 1478 1478 1477 1476 1475 1474 1473 1472 1472 1471 1470 1469 1469 1468 1468 1467 1466 1465 1464 1463 1462 1460 1458 1456 1455 1452 1450 1448 1446 1444 1441 1439
1504 1505 1504 1492 1485 1489 1490 1487 1487 1484 1478 1476 1476 1475 1474 1473 1472 1470 1469 1469 1468 1467 1467 1466 1465 1465 1464 1464 1463 1462 1461 1460 1459 1457 1455 1453 1452 1450 1448 1445 1443 1441 1439 1437
1508 1504 1499 1479 1482 1482 1483 1481 1481 1478 1475 1474 1474 1473 1472 1470 1468 1467 1466 1465 1465 1464 1463 1463 1462 1461 1461 1460 1459 1459 1458 1457 1455 1454 1452 1450 1449 1447 1445 1443 1441 1439 1436 1434
1510 1501 1487 1478 1480 1482 1482 1476 1473 1473 1473 1473 1472 1471 1467 1466 1465 1464 1463 1462 1461 1461 1460 1459 1458 1458 1457 1456 1456 1455 1454 1453 1452 1450 1449 1447 1445 1444 1442 1440 1438 1436 1434 1431
1510 1504 1488 1473 1479 1480 1481 1473 1469 1470 1470 1470 1470 1467 1463 1464 1462 1461 1461 1459 1458 1457 1456 1455 1455 1454 1453 1452 1452 1451 1450 1449 1448 1447 1446 1444 1442 1441 1439 1437 1435 1433 1431 1428
1507 1500 1481 1474 1478 1480 1477 1467 1468 1468 1467 1467 1467 1465 1463 1461 1459 1458 1457 1456 1454 1453 1452 1451 1451 1450 1449 1448 1447 1447 1446 1446 1445 1443 1442 1441 1439 1438 1436 1434 1432 1430 1428 1425
1499 1497 1482 1474 1476 1474 1467 1466 1466 1465 1465 1464 1463 1461 1459 1457 1456 1454 1453 1451 1450 1449 1448 1447 1446 1445 1444 1443 1443 1443 1442 1442 1441 1440 1438 1437 1436 1434 1433 1431 1429 1426 1424 1422
1486 1477 1471 1470 1469 1467 1466 1465 1464 1463 1462 1460 1458 1456 1454 1453 1451 1450 1448 1447 1445 1444 1443 1442 1441 1441 1440 1439 1439 1438 1438 1437 1437 1436 1434 1433 1432 1430 1429 1427 1425 1423 1421 1419
1480 1470 1467 1466 1464 1463 1463 1461 1460 1459 1457 1456 1453 1451 1449 1448 1446 1444 1443 1442 1441 1439 1438 1437 1437 1436 1435 1435 1434 1434 1433 1433 1432 1431 1430 1429 1428 1427 1425 1423 1421 1419 1418 1415
1472 1465 1463 1459 1458 1458 1457 1456 1455 1454 1452 1451 1449 1446 1444 1442 1441 1439 1438 1436 1435 1434 1433 1433 1432 1431 1431 1430 1430 1429 1429 1428 1427 1427 1426 1425 1424 1422 1421 1420 1418 1416 1414 1412
1461 1457 1457 1454 1454 1454 1452 1451 1449 1448 1446 1445 1443 1441 1439 1436 1435 1434 1432 1431 1430 1429 1429 1428 1427 1427 1426 1426 1425 1424 1424 1423 1422 1422 1421 1420 1419 1418 1416 1415 1414 1412 1410 1408
1454 1452 1452 1449 1448 1448 1447 1445 1444 1442 1441 1438 1437 1435 1433 1431 1429 1428 1427 1426 1425 1424 1424 1423 1423 1422 1422 1421 1420 1419 1419 1418 1417 1417 1416 1415 1414 1413 1411 1410 1409 1407 1405 1403
1449 1448 1445 1443 1443 1442 1440 1439 1438 1436 1435 1433 1431 1429 1428 1425 1424 1423 1421 1421 1420 1419 1418 1418 1417 1417 1417 1416 1415 1414 1414 1413 1412 1412 1411 1410 1409 1408 1406 1405 1403 1401 1401 1399
1442 1441 1440 1438 1437 1436 1434 1433 1432 1430 1429 1427 1426 1424 1422 1420 1418 1417 1416 1416 1414 1414 1413 1413 1412 1412 1412 1411 1410 1409 1409 1408 1407 1407 1406 1405 1404 1403 1401 1400 1398 1397 1395 1394
1435 1434 1433 1432 1431 1430 1428 1427 1426 1424 1423 1422 1420 1418 1417 1415 1414 1412 1411 1411 1409 1408 1408 1407 1406 1406 1406 1405 1404 1404 1403 1403 1402 1401 1400 1400 1399 1397 1396 1395 1393 1392 1390 1389
1429 1427 1426 1426 1425 1424 1423 1422 1421 1419 1418 1416 1415 1414 1412 1410 1409 1408 1407 1406 1405 1404 1403 1402 1401 1401 1400 1400 1399 1398 1398 1397 1397 1396 1395 1394 1393 1392 1391 1390 1388 1387 1385 1384
1422 1421 1421 1420 1419 1418 1417 1416 1415 1414 1413 1411 1410 1409 1407 1406 1404 1403 1402 1401 1400 1399 1398 1397 1396 1396 1395 1395 1394 1393 1392 1391 1391 1390 1389 1388 1387 1386 1385 1384 1383 1382 1380 1379
1417 1416 1416 1415 1414 1413 1412 1411 1410 1409 1408 1406 1405 1404 1402 1401 1400 1399 1398 1396 1395 1394 1393 1393 1392 1391 1390 1389 1389 1388 1387 1386 1385 1384 1383 1382 1382 1381 1380 1379 1378 1376 1375 1373
1412 1412 1411 1410 1409 1408 1407 1405 1405 1404 1403 1402 1400 1399 1398 1397 1396 1395 1393 1392 1391 1390 1389 1388 1387 1386 1385 1384 1383 1382 1381 1380 1379 1378 1378 1377 1376 1375 1374 1373 1372 1371 1370 1368
1409 1408 1407 1406 1405 1404 1403 1401 1400 1399 1398 1397 1395 1394 1393 1392 1391 1390 1388 1387 1386 1385 1384 1383 1382 1381 1380 1379 1378 1377 1376 1375 1374 1373 1372 1371 1371 1370 1369 1368 1367 1365 1364 1363
1406 1405 1404 1403 1401 1400 1398 1397 1396 1395 1393 1392 1391 1389 1388 1387 1386 1385 1383 1383 1382 1381 1379 1378 1377 1376 1375 1374 1373 1372 1371 1370 1369 1368 1367 1366 1365 1364 1363 1363 1361 1360 1359 1358
1403 1402 1401 1400 1398 1396 1395 1393 1392 1390 1389 1387 1386 1385 1383 1382 1381 1380 1378 1378 1377 1376 1374 1373 1372 1371 1370 1369 1368 1367 1366 1364 1363 1362 1362 1361 1360 1359 1358 1357 1356 1355 1354 1353
1400 1398 1397 1396 1395 1393 1391 1389 1387 1386 1384 1382 1381 1380 1379 1377 1376 1375 1374 1373 1372 1371 1369 1368 1367 1366 1365 1364 1363 1362 1361 1360 1359 1358 1357 1356 1355 1354 1353 1352 1351 1350 1349 1348
1395 1394 1392 1391 1390 1388 1386 1384 1382 1381 1379 1377 1376 1375 1374 1373 1372 1370 1369 1368 1367 1366 1364 1363 1363 1361 1360 1359 1358 1357 1356 1355 1354 1353 1352 1351 1350 1349 1349 1348 1347 1346 1345 1343
1389 1388 1386 1385 1384 1383 1381 1379 1377 1375 1374 1372 1371 1370 1369 1368 1366 1365 1364 1363 1362 1361 1359 1358 1357 1356 1355 1354 1353 1352 1351 1350 1349 1348 1347 1347 1346 1345 1344 1343 1342 1341 1340 1339
1382 1380 1379 1378 1377 1376 1374 1373 1371 1370 1368 1367 1365 1364 1363 1362 1361 1360 1359 1358 1357 1355 1354 1353 1352 1351 1350 1349 1348 1347 1347 1346 1345 1344 1343 1342 1342 1341 1340 1340 1339 1338 1337 1336